Terug naar catalogus

COSMOS 926

ActiefMilitairPO
NORAD 10137·PAYLOAD·🇷🇺 Russia

Gelanceerd Jul 8, 1977 vanaf Plesetsk Cosmodrome

Loading…

Volgende Passages (komende 24 uur)

TLE

VersSource: Space-Track

Epoch: Sep 14, 2026, 13:59 UTC

1 10137U 77062A   26257.58323744  .00000043  00000-0  30353-4 0  9997
2 10137  82.9404 301.7163 0033679 119.5827  34.3295 13.72581632462481

Volg COSMOS 926 in realtime met AllMySat

Download on the App Store